User: anonymous   Login
Location: Bremen
(53.0830°N, 8.8000°E)
Time: 18:02:02
(UTC+02:00)
Language:

Hubble Space Telescope - Orbit

View from above orbital plane
View from above orbital plane
View from above satellite
View from above satellite

Ground track
Ground track

The orbit data is extracted from the following two-line orbital elements,

1 20580U 90037B   21267.88032319  .00000908  00000-0  43895-4 0  9996
2 20580  28.4695 127.1529 0002788  56.3207  60.9407 15.09746519526035
Epoch (UTC): 24 September 2021 21:07:39
Eccentricity: 0.0002788
inclination: 28.4695°
perigee height: 535 km
apogee height: 539 km
right ascension of ascending node: 127.1529°
argument of perigee: 56.3207°
revolutions per day: 15.09746519
mean anomaly at epoch: 60.9407°
orbit number at epoch: 52603

The dashed part of the orbit path shows where the satellite is in the earth's shadow,  

DLR